| time (UTC) | temp F | wind direction | speed MPH | gust MPH | rain 1hr in | rain 24hr in | rain mn in | humidity % | barometer mb |
| 20260507093010 | 40 | 1 | 4.0 | 6.0 | 0.00 | 0.00 | 0.00 | 63 | 974.1 |
| 20260507091509 | 38 | 2 | 0.0 | 5.0 | 0.00 | 0.00 | 0.00 | 67 | 974.4 |
| 20260507090009 | 38 | 1 | 3.0 | 8.0 | 0.00 | 0.00 | 0.00 | 66 | 974.6 |
| 20260507084507 | 38 | 1 | 2.0 | 3.0 | 0.00 | 0.00 | 0.00 | 68 | 974.9 |
| 20260507083005 | 38 | 1 | 0.0 | 0.0 | 0.00 | 0.00 | 0.00 | 66 | 975.0 |
| 20260507081507 | 38 | 1 | 0.0 | 0.0 | 0.00 | 0.00 | 0.00 | 67 | 975.0 |
| 20260507080004 | 38 | 1 | 0.0 | 0.0 | 0.00 | 0.00 | 0.00 | 67 | 975.1 |
| 20260507074501 | 38 | 1 | 0.0 | 0.0 | 0.00 | 0.00 | 0.00 | 67 | 975.3 |
| 20260507073103 | 38 | 1 | 0.0 | 0.0 | 0.00 | 0.00 | 0.00 | 65 | 975.5 |
| 20260507071600 | 38 | 1 | 0.0 | 2.0 | 0.00 | 0.00 | 0.00 | 63 | 975.6 |
| 20260507070105 | 38 | 1 | 0.0 | 3.0 | 0.00 | 0.00 | 0.00 | 64 | 975.8 |
| 20260507064558 | 38 | 10 | 0.0 | 0.0 | 0.00 | 0.00 | 0.00 | 62 | 975.9 |
| 20260507063058 | 38 | 9 | 0.0 | 2.0 | 0.00 | 0.00 | 0.00 | 65 | 975.9 |
| 20260507061556 | 37 | 8 | 0.0 | 0.0 | 0.00 | 0.00 | 0.00 | 67 | 975.9 |
| 20260507060101 | 37 | 8 | 0.0 | 2.0 | 0.00 | 0.00 | 0.00 | 64 | 976.1 |
| 20260507054554 | 37 | 8 | 0.0 | 2.0 | 0.00 | 0.00 | 0.00 | 64 | 976.0 |
| 20260507053049 | 39 | 5 | 0.0 | 0.0 | 0.00 | 0.00 | 0.00 | 62 | 975.9 |
| 20260507051547 | 40 | 5 | 0.0 | 0.0 | 0.00 | 0.00 | 0.00 | 61 | 976.0 |
| 20260507050044 | 40 | 5 | 0.0 | 0.0 | 0.00 | 0.00 | 0.00 | 65 | 976.1 |
| 20260507044554 | 41 | 5 | 0.0 | 0.0 | 0.00 | 0.00 | 0.00 | 55 | 976.1 |
| 20260507043056 | 42 | 5 | 0.0 | 0.0 | 0.00 | 0.00 | 0.00 | 51 | 976.2 |
| 20260507041542 | 43 | 5 | 0.0 | 0.0 | 0.00 | 0.00 | 0.00 | 48 | 976.3 |
| 20260507040042 | 43 | 5 | 0.0 | 0.0 | 0.00 | 0.00 | 0.00 | 48 | 976.5 |
| 20260507034542 | 44 | 5 | 0.0 | 0.0 | 0.00 | 0.00 | 0.00 | 47 | 976.5 |
| 20260507033041 | 44 | 5 | 0.0 | 0.0 | 0.00 | 0.00 | 0.00 | 47 | 976.6 |
| 20260507031545 | 45 | 5 | 0.0 | 0.0 | 0.00 | 0.00 | 0.00 | 46 | 976.8 |
| 20260507030042 | 46 | 6 | 0.0 | 0.0 | 0.00 | 0.00 | 0.00 | 45 | 976.7 |
| 20260507024542 | 46 | 6 | 0.0 | 0.0 | 0.00 | 0.00 | 0.00 | 45 | 976.7 |
| 20260507023039 | 46 | 6 | 0.0 | 1.0 | 0.00 | 0.00 | 0.00 | 45 | 976.7 |
| 20260507021540 | 47 | 6 | 0.0 | 0.0 | 0.00 | 0.00 | 0.00 | 43 | 976.6 |
| 20260507020048 | 48 | 360 | 0.0 | 0.0 | 0.00 | 0.00 | 0.00 | 42 | 976.6 |
| 20260507014538 | 49 | 360 | 0.0 | 3.0 | 0.00 | 0.00 | 0.00 | 41 | 976.4 |
| 20260507013038 | 49 | 360 | 0.0 | 0.0 | 0.00 | 0.00 | 0.00 | 40 | 976.5 |
| 20260507011545 | 50 | 360 | 0.0 | 4.0 | 0.00 | 0.00 | 0.00 | 40 | 976.5 |
| 20260507010037 | 51 | 360 | 2.0 | 6.0 | 0.00 | 0.00 | 0.00 | 38 | 976.5 |
| 20260507004535 | 52 | 360 | 2.0 | 7.0 | 0.00 | 0.00 | 0.00 | 37 | 976.5 |
| 20260507003036 | 53 | 360 | 3.0 | 8.0 | 0.00 | 0.00 | 0.00 | 37 | 976.6 |
| 20260507001603 | 53 | 360 | 6.0 | 17.0 | 0.00 | 0.00 | 0.00 | 36 | 976.6 |
| 20260507000041 | 53 | 360 | 7.0 | 13.0 | 0.00 | 0.00 | 0.00 | 36 | 976.7 |
| 20260506234533 | 53 | 360 | 5.0 | 15.0 | 0.00 | 0.00 | 0.00 | 36 | 976.7 |
| 20260506233033 | 54 | 4 | 7.0 | 15.0 | 0.00 | 0.00 | 0.00 | 34 | 976.9 |
| 20260506231533 | 53 | 360 | 5.0 | 13.0 | 0.00 | 0.00 | 0.00 | 37 | 976.8 |
| 20260506230050 | 54 | 360 | 11.0 | 20.0 | 0.00 | 0.00 | 0.00 | 34 | 977.0 |
| 20260506224532 | 54 | 360 | 11.0 | 20.0 | 0.00 | 0.00 | 0.00 | 34 | 977.1 |
| 20260506223033 | 54 | 6 | 12.0 | 22.0 | 0.00 | 0.00 | 0.00 | 33 | 976.8 |
| 20260506221530 | 54 | 5 | 10.0 | 22.0 | 0.00 | 0.00 | 0.00 | 35 | 977.0 |
| 20260506220035 | 54 | 6 | 10.0 | 21.0 | 0.00 | 0.00 | 0.00 | 34 | 976.9 |
| 20260506214527 | 54 | 6 | 11.0 | 22.0 | 0.00 | 0.00 | 0.00 | 36 | 977.1 |
| 20260506213026 | 53 | 6 | 7.0 | 17.0 | 0.00 | 0.00 | 0.00 | 38 | 977.0 |
| 20260506211525 | 53 | 6 | 9.0 | 21.0 | 0.00 | 0.00 | 0.00 | 37 | 977.2 |
| 20260506210044 | 53 | 360 | 13.0 | 20.0 | 0.00 | 0.00 | 0.00 | 35 | 977.4 |
| 20260506204523 | 53 | 360 | 12.0 | 22.0 | 0.00 | 0.00 | 0.00 | 39 | 977.6 |
| 20260506203021 | 52 | 6 | 11.0 | 19.0 | 0.00 | 0.00 | 0.00 | 38 | 977.9 |
| 20260506201522 | 52 | 6 | 8.0 | 18.0 | 0.00 | 0.00 | 0.00 | 41 | 977.9 |
| 20260506200018 | 52 | 5 | 7.0 | 15.0 | 0.00 | 0.00 | 0.00 | 42 | 977.9 |
| 20260506194518 | 50 | 6 | 9.0 | 18.0 | 0.00 | 0.00 | 0.00 | 42 | 978.1 |
| 20260506193025 | 51 | 360 | 12.0 | 21.0 | 0.00 | 0.00 | 0.00 | 45 | 978.0 |
| 20260506191515 | 52 | 5 | 9.0 | 17.0 | 0.00 | 0.00 | 0.00 | 42 | 978.1 |
| 20260506190014 | 51 | 7 | 10.0 | 18.0 | 0.00 | 0.00 | 0.00 | 40 | 978.3 |
| 20260506184511 | 50 | 5 | 8.0 | 23.0 | 0.00 | 0.00 | 0.00 | 43 | 978.2 |
| 20260506183009 | 50 | 360 | 12.0 | 22.0 | 0.00 | 0.00 | 0.00 | 41 | 978.4 |
| 20260506181511 | 49 | 360 | 5.0 | 18.0 | 0.00 | 0.00 | 0.00 | 45 | 978.5 |
| 20260506180010 | 49 | 360 | 8.0 | 23.0 | 0.00 | 0.00 | 0.00 | 44 | 978.6 |
| 20260506174507 | 50 | 6 | 10.0 | 18.0 | 0.00 | 0.00 | 0.00 | 42 | 978.8 |
| 20260506173110 | 49 | 360 | 8.0 | 15.0 | 0.00 | 0.00 | 0.00 | 45 | 978.9 |
| 20260506171504 | 48 | 360 | 12.0 | 24.0 | 0.00 | 0.00 | 0.00 | 43 | 978.8 |
| 20260506170003 | 48 | 360 | 12.0 | 23.0 | 0.00 | 0.00 | 0.00 | 43 | 978.9 |
| 20260506164509 | 47 | 360 | 12.0 | 19.0 | 0.00 | 0.00 | 0.00 | 43 | 978.9 |
| 20260506163111 | 48 | 360 | 11.0 | 19.0 | 0.00 | 0.00 | 0.00 | 46 | 978.9 |
| 20260506161559 | 47 | 360 | 12.0 | 21.0 | 0.00 | 0.00 | 0.00 | 46 | 978.8 |
| 20260506160122 | 47 | 360 | 5.0 | 14.0 | 0.00 | 0.00 | 0.00 | 50 | 978.8 |
| 20260506154559 | 47 | 360 | 9.0 | 20.0 | 0.00 | 0.00 | 0.00 | 47 | 978.7 |
| 20260506153055 | 47 | 6 | 6.0 | 15.0 | 0.00 | 0.00 | 0.00 | 47 | 978.5 |
| 20260506151557 | 47 | 4 | 5.0 | 12.0 | 0.00 | 0.00 | 0.00 | 50 | 978.6 |
| 20260506144551 | 46 | 4 | 6.0 | 12.0 | 0.00 | 0.00 | 0.00 | 50 | 978.6 |
| 20260506143049 | 46 | 6 | 3.0 | 12.0 | 0.00 | 0.00 | 0.00 | 52 | 978.4 |
| 20260506141546 | 45 | 6 | 5.0 | 10.0 | 0.00 | 0.00 | 0.00 | 49 | 978.3 |
| 20260506140043 | 44 | 6 | 5.0 | 16.0 | 0.00 | 0.00 | 0.00 | 51 | 978.4 |
| 20260506134540 | 44 | 6 | 4.0 | 8.0 | 0.00 | 0.00 | 0.00 | 53 | 978.2 |
| 20260506133049 | 43 | 5 | 3.0 | 7.0 | 0.00 | 0.00 | 0.00 | 56 | 978.1 |
| 20260506131537 | 42 | 5 | 3.0 | 6.0 | 0.00 | 0.00 | 0.00 | 57 | 978.0 |
| 20260506130035 | 41 | 6 | 1.0 | 5.0 | 0.00 | 0.00 | 0.00 | 60 | 977.9 |
| 20260506124535 | 40 | 6 | 2.0 | 4.0 | 0.00 | 0.00 | 0.00 | 64 | 977.9 |
| 20260506123034 | 39 | 6 | 2.0 | 5.0 | 0.00 | 0.00 | 0.00 | 66 | 977.8 |
| 20260506121532 | 37 | 360 | 2.0 | 5.0 | 0.00 | 0.00 | 0.00 | 69 | 977.5 |
| 20260506120049 | 36 | 6 | 2.0 | 6.0 | 0.00 | 0.00 | 0.00 | 71 | 977.4 |
| 20260506114527 | 36 | 6 | 0.0 | 4.0 | 0.00 | 0.00 | 0.00 | 69 | 977.2 |
| 20260506113024 | 37 | 6 | 0.0 | 4.0 | 0.00 | 0.00 | 0.00 | 68 | 977.0 |
| 20260506111522 | 37 | 6 | 2.0 | 4.0 | 0.00 | 0.00 | 0.00 | 66 | 976.6 |
| 20260506110024 | 38 | 6 | 2.0 | 5.0 | 0.00 | 0.00 | 0.00 | 65 | 976.6 |
| 20260506104531 | 38 | 6 | 2.0 | 5.0 | 0.00 | 0.00 | 0.00 | 65 | 976.4 |
| 20260506103035 | 38 | 6 | 2.0 | 4.0 | 0.00 | 0.00 | 0.00 | 65 | 976.2 |
| 20260506101516 | 38 | 5 | 1.0 | 4.0 | 0.00 | 0.00 | 0.00 | 65 | 976.3 |
| 20260506100016 | 39 | 6 | 2.0 | 4.0 | 0.00 | 0.00 | 0.00 | 64 | 976.2 |
| 20260506094514 | 39 | 6 | 2.0 | 4.0 | 0.00 | 0.00 | 0.00 | 63 | 976.3 |